Lid_Strength_Index
9 11 12 11 10 10 11 13 14 12 9 11 11 10 9 7 7 8 9 8 9 7 7 3 3 2 2 1 2 2 1 1 1 1 1 1 1 0 0 -1 -1 -1 -1 -1
12 13 10 9 9 10 11 14 14 11 10 10 11 12 9 8 8 7 9 9 9 9 8 7 6 3 2 2 2 2 1 1 1 1 1 1 1 0 0 -0 -1 -1 -1 -1
13 12 10 10 10 12 12 14 14 14 11 10 12 14 12 9 9 8 10 9 10 10 9 9 9 8 6 4 2 2 1 1 1 1 1 1 0 0 1 0 0 -0 -1 -1
13 11 12 11 11 11 14 10 12 13 14 17 12 19 14 12 12 11 11 10 10 10 9 10 8 8 8 7 4 4 3 2 2 1 1 1 2 3 1 1 0 -0 -1 -1
14 13 12 12 11 9 12 10 11 12 14 14 15 17 15 14 14 13 11 11 11 10 9 10 10 9 8 8 7 6 5 5 4 3 1 1 2 1 1 1 1 1 1 1
13 11 11 11 10 9 9 10 11 11 14 18 16 16 16 15 15 13 11 11 10 11 10 9 9 9 9 9 8 7 7 7 6 6 6 5 5 4 3 2 2 2 3 3
13 13 11 11 11 9 9 11 17 18 19 20 15 16 16 14 12 11 11 10 10 10 10 10 10 9 10 10 9 8 8 8 7 7 7 7 7 6 5 5 5 4 4 4
17 17 12 11 11 12 11 12 16 22 20 19 14 17 15 12 11 11 10 9 9 9 9 9 9 10 9 10 11 9 9 9 8 7 8 7 7 7 7 7 6 5 5 6
16 16 12 12 11 11 12 13 11 15 17 17 16 15 13 12 12 12 11 11 11 10 9 8 9 9 10 10 10 10 9 9 9 9 8 8 8 7 6 6 6 6 6 6
14 17 13 12 10 10 11 10 14 14 20 21 18 17 16 14 13 13 13 12 12 11 11 11 10 10 10 10 10 10 10 10 10 9 9 8 8 7 7 7 7 7 8 7
13 15 15 12 13 14 12 12 12 12 14 18 19 17 12 12 12 13 13 12 12 11 11 11 11 10 10 10 10 10 10 10 10 10 10 10 9 9 8 8 8 8 8 8
13 15 17 15 13 13 12 13 12 14 17 15 16 16 10 11 11 12 12 12 11 11 11 10 10 10 10 10 10 10 10 9 9 9 10 9 9 9 8 8 8 7 8 8
12 17 18 17 14 13 14 12 12 12 12 15 16 15 11 11 11 12 12 12 11 11 11 10 10 11 10 10 10 10 10 9 9 8 8 8 8 8 8 8 8 7 8 8
11 15 17 18 17 15 16 14 12 13 15 14 14 13 12 11 12 12 12 11 11 11 11 10 10 10 10 10 10 10 10 10 9 8 8 7 7 7 6 6 6 7 7 7
13 17 17 16 16 16 15 15 14 13 13 14 13 12 11 10 10 10 11 11 11 11 11 10 10 9 9 9 9 9 9 9 9 8 7 7 7 7 6 6 6 6 7 7
15 17 18 19 17 17 19 16 15 14 12 12 12 12 9 9 9 9 10 10 11 10 10 9 9 9 9 9 9 9 9 9 8 8 8 7 7 6 6 6 6 7 7 8
16 18 19 19 21 21 20 18 16 14 12 11 13 10 9 11 10 10 10 9 10 9 9 9 9 8 8 8 8 8 8 8 8 8 8 8 7 7 6 6 6 7 7 7
18 20 21 19 22 23 17 16 16 14 13 11 12 11 11 10 9 9 9 9 9 9 9 8 8 8 8 8 8 9 9 9 9 9 9 9 8 8 8 7 7 7 7 8
15 18 23 20 21 19 18 17 16 16 15 12 12 12 12 10 10 10 9 9 8 8 8 8 8 9 8 8 8 9 8 8 8 8 9 9 9 8 8 8 7 7 7 8
17 17 18 23 22 23 17 15 14 14 17 13 11 11 11 11 13 11 9 9 9 9 8 8 8 8 8 8 8 9 8 9 8 9 9 9 9 8 8 8 8 7 7 8
19 20 20 23 20 19 15 14 13 18 16 13 12 11 11 12 10 9 10 9 9 8 8 8 8 8 8 8 8 8 8 8 8 9 9 9 9 9 8 8 8 8 8 9
19 20 21 23 21 22 15 14 16 13 12 11 12 11 11 11 11 10 9 9 9 8 8 8 8 8 8 8 9 9 8 8 9 9 9 10 10 10 9 9 9 9 8 9
18 17 19 18 17 15 14 13 11 12 11 11 11 11 11 10 10 9 9 9 8 9 9 9 9 9 8 9 9 10 9 9 10 11 11 11 10 10 10 9 9 9 9 9
17 16 17 18 15 15 13 12 12 11 11 10 10 10 10 10 9 10 10 9 9 9 9 9 9 9 9 9 11 10 10 11 12 11 10 10 11 9 9 9 8 8 9 9
16 16 17 17 15 14 13 12 11 11 11 10 11 10 9 9 10 10 10 10 9 10 10 10 10 10 10 10 10 10 11 12 12 11 11 10 10 10 9 9 9 9 8 8
16 16 17 16 13 12 12 11 11 11 11 10 10 11 10 10 9 10 9 9 10 10 10 11 11 12 11 11 11 11 11 12 12 10 9 9 9 8 9 9 9 9 9 9